Time,TemperatureF,DewpointF,PressureIn,WindDirection,WindDirectionDegrees,WindSpeedMPH,WindSpeedGustMPH,Humidity,HourlyPrecipIn,Conditions,Clouds,dailyrainin,SoftwareType,DateUTC
2013-02-18 00:14:00,44.4,32.0,30.09,SE,144,0.0,1.0,61,0.00,,,0.00,weatherlink.com 1.10,2013-02-18 06:14:00,
2013-02-18 00:29:00,44.4,32.0,30.10,SSE,162,0.0,1.0,62,0.00,,,0.00,weatherlink.com 1.10,2013-02-18 06:29:00,
2013-02-18 00:44:00,44.2,32.0,30.10,SSE,150,0.0,1.0,62,0.00,,,0.00,weatherlink.com 1.10,2013-02-18 06:44:00,
2013-02-18 00:59:00,44.5,33.0,30.09,South,169,0.0,1.0,64,0.00,,,0.00,weatherlink.com 1.10,2013-02-18 06:59:00,
2013-02-18 01:14:00,45.4,33.0,30.09,SSE,160,0.0,2.0,63,0.00,,,0.00,weatherlink.com 1.10,2013-02-18 07:14:00,
2013-02-18 01:29:00,45.9,33.0,30.09,South,174,1.0,2.0,62,0.00,,,0.00,weatherlink.com 1.10,2013-02-18 07:29:00,
2013-02-18 01:44:00,46.0,33.0,30.09,SSE,161,1.0,2.0,62,0.00,,,0.00,weatherlink.com 1.10,2013-02-18 07:44:00,
2013-02-18 01:59:00,45.9,33.0,30.10,SSW,196,0.0,2.0,62,0.00,,,0.00,weatherlink.com 1.10,2013-02-18 07:59:00,
2013-02-18 02:14:00,46.2,34.0,30.09,SSW,207,0.0,3.0,63,0.00,,,0.00,weatherlink.com 1.10,2013-02-18 08:14:00,
2013-02-18 02:29:00,46.1,34.0,30.09,SSE,153,1.0,3.0,64,0.00,,,0.00,weatherlink.com 1.10,2013-02-18 08:29:00,
2013-02-18 02:44:00,46.0,35.0,30.09,South,184,0.0,2.0,65,0.00,,,0.00,weatherlink.com 1.10,2013-02-18 08:44:00,
2013-02-18 02:59:00,46.0,35.0,30.10,SSE,167,0.0,2.0,66,0.00,,,0.00,weatherlink.com 1.10,2013-02-18 08:59:00,
2013-02-18 03:14:00,45.8,35.0,30.09,SSW,200,1.0,2.0,67,0.00,,,0.00,weatherlink.com 1.10,2013-02-18 09:14:00,
2013-02-18 03:29:00,45.6,36.0,30.09,SSE,148,0.0,2.0,69,0.00,,,0.00,weatherlink.com 1.10,2013-02-18 09:29:00,
2013-02-18 03:44:00,45.1,36.0,30.09,SSE,164,0.0,2.0,71,0.00,,,0.00,weatherlink.com 1.10,2013-02-18 09:44:00,
2013-02-18 03:59:00,44.8,36.0,30.09,SSE,159,1.0,2.0,72,0.00,,,0.00,weatherlink.com 1.10,2013-02-18 09:59:00,
2013-02-18 04:14:00,44.6,36.0,30.10,SSW,193,0.0,2.0,72,0.00,,,0.00,weatherlink.com 1.10,2013-02-18 10:14:00,
2013-02-18 04:29:00,44.2,36.0,30.10,SSE,166,1.0,1.0,73,0.00,,,0.00,weatherlink.com 1.10,2013-02-18 10:29:00,
2013-02-18 04:44:00,43.9,36.0,30.10,South,190,0.0,2.0,74,0.00,,,0.00,weatherlink.com 1.10,2013-02-18 10:44:00,
2013-02-18 04:59:00,43.6,36.0,30.11,South,187,1.0,2.0,75,0.00,,,0.00,weatherlink.com 1.10,2013-02-18 10:59:00,
2013-02-18 05:14:00,43.3,36.0,30.11,SSE,158,0.0,2.0,75,0.00,,,0.00,weatherlink.com 1.10,2013-02-18 11:14:00,
2013-02-18 05:29:00,42.8,36.0,30.11,SSE,157,0.0,1.0,76,0.00,,,0.00,weatherlink.com 1.10,2013-02-18 11:29:00,
2013-02-18 05:44:00,41.8,35.0,30.11,East,82,0.0,1.0,78,0.00,,,0.00,weatherlink.com 1.10,2013-02-18 11:44:00,
2013-02-18 05:59:00,40.9,35.0,30.10,East,83,0.0,1.0,80,0.00,,,0.00,weatherlink.com 1.10,2013-02-18 11:59:00,
2013-02-18 06:14:00,41.1,35.0,30.10,SE,139,0.0,1.0,80,0.00,,,0.00,weatherlink.com 1.10,2013-02-18 12:14:00,
2013-02-18 06:29:00,41.3,36.0,30.10,South,191,0.0,1.0,80,0.00,,,0.00,weatherlink.com 1.10,2013-02-18 12:29:00,
2013-02-18 06:44:00,41.6,36.0,30.10,SSE,156,0.0,2.0,79,0.00,,,0.00,weatherlink.com 1.10,2013-02-18 12:44:00,
2013-02-18 06:59:00,41.7,36.0,30.10,SE,127,1.0,1.0,79,0.00,,,0.00,weatherlink.com 1.10,2013-02-18 12:59:00,
2013-02-18 07:14:00,42.0,36.0,30.10,SSE,153,0.0,1.0,80,0.00,,,0.00,weatherlink.com 1.10,2013-02-18 13:14:00,
2013-02-18 07:29:00,42.9,37.0,30.10,SE,131,0.0,2.0,80,0.00,,,0.00,weatherlink.com 1.10,2013-02-18 13:29:00,
2013-02-18 07:44:00,44.2,38.0,30.10,SSE,164,0.0,3.0,78,0.00,,,0.00,weatherlink.com 1.10,2013-02-18 13:44:00,
2013-02-18 07:59:00,45.6,38.0,30.10,South,177,0.0,2.0,76,0.00,,,0.00,weatherlink.com 1.10,2013-02-18 13:59:00,
2013-02-18 08:14:00,46.8,39.0,30.10,South,176,2.0,3.0,74,0.00,,,0.00,weatherlink.com 1.10,2013-02-18 14:14:00,
2013-02-18 08:29:00,47.9,39.0,30.10,SE,146,2.0,3.0,72,0.00,,,0.00,weatherlink.com 1.10,2013-02-18 14:29:00,
2013-02-18 08:45:00,48.8,39.0,30.09,SSE,162,1.0,3.0,70,0.00,,,0.00,weatherlink.com 1.10,2013-02-18 14:45:00,
2013-02-18 09:00:00,50.2,40.0,30.09,South,170,0.0,3.0,68,0.00,,,0.00,weatherlink.com 1.10,2013-02-18 15:00:00,
2013-02-18 09:15:00,52.6,41.0,30.08,SW,215,1.0,3.0,64,0.00,,,0.00,weatherlink.com 1.10,2013-02-18 15:15:00,
2013-02-18 09:30:00,54.6,42.0,30.07,South,191,2.0,4.0,62,0.00,,,0.00,weatherlink.com 1.10,2013-02-18 15:30:00,
2013-02-18 09:45:00,56.3,42.0,30.07,South,179,3.0,4.0,59,0.00,,,0.00,weatherlink.com 1.10,2013-02-18 15:45:00,
2013-02-18 10:00:00,56.9,42.0,30.07,SSW,200,4.0,7.0,59,0.00,,,0.00,weatherlink.com 1.10,2013-02-18 16:00:00,
2013-02-18 10:15:00,56.8,43.0,30.06,SSW,210,3.0,6.0,60,0.00,,,0.00,weatherlink.com 1.10,2013-02-18 16:15:00,
2013-02-18 10:30:00,57.2,43.0,30.05,South,179,4.0,6.0,60,0.00,,,0.00,weatherlink.com 1.10,2013-02-18 16:30:00,
2013-02-18 10:45:00,57.3,44.0,30.05,NE,46,4.0,5.0,61,0.00,,,0.00,weatherlink.com 1.10,2013-02-18 16:45:00,
2013-02-18 11:00:00,56.4,44.0,30.05,North,358,1.0,4.0,63,0.00,,,0.00,weatherlink.com 1.10,2013-02-18 17:00:00,
2013-02-18 11:15:00,56.0,44.0,30.04,SSE,164,1.0,4.0,64,0.00,,,0.00,weatherlink.com 1.10,2013-02-18 17:15:00,
2013-02-18 11:30:00,55.8,44.0,30.02,SSW,194,1.0,3.0,66,0.00,,,0.00,weatherlink.com 1.10,2013-02-18 17:30:00,
2013-02-18 11:45:00,56.5,45.0,30.01,SSW,192,2.0,3.0,65,0.00,,,0.00,weatherlink.com 1.10,2013-02-18 17:45:00,
2013-02-18 12:00:00,58.4,46.0,30.00,SSW,198,2.0,3.0,63,0.00,,,0.00,weatherlink.com 1.10,2013-02-18 18:00:00,
2013-02-18 12:15:00,58.8,45.0,29.99,SSW,208,1.0,4.0,61,0.00,,,0.00,weatherlink.com 1.10,2013-02-18 18:15:00,
2013-02-18 12:30:00,58.9,45.0,29.97,SSE,166,2.0,5.0,60,0.00,,,0.00,weatherlink.com 1.10,2013-02-18 18:30:00,
2013-02-18 12:45:00,58.5,44.0,29.96,South,169,2.0,4.0,60,0.00,,,0.00,weatherlink.com 1.10,2013-02-18 18:45:00,
2013-02-18 13:00:00,58.3,45.0,29.95,ESE,103,1.0,4.0,61,0.00,,,0.00,weatherlink.com 1.10,2013-02-18 19:00:00,
2013-02-18 13:15:00,56.9,48.0,29.94,South,181,2.0,4.0,71,0.00,,,0.00,weatherlink.com 1.10,2013-02-18 19:15:00,
2013-02-18 13:30:00,54.5,48.0,29.93,SSE,159,1.0,3.0,78,0.01,,,0.01,weatherlink.com 1.10,2013-02-18 19:30:00,
2013-02-18 13:45:00,54.1,48.0,29.91,SW,218,2.0,3.0,80,0.01,,,0.01,weatherlink.com 1.10,2013-02-18 19:45:00,
2013-02-18 14:01:00,55.3,48.0,29.89,SSW,200,2.0,4.0,77,0.01,,,0.01,weatherlink.com 1.10,2013-02-18 20:01:00,
2013-02-18 14:16:00,56.5,49.0,29.88,South,172,1.0,4.0,76,0.01,,,0.01,weatherlink.com 1.10,2013-02-18 20:16:00,
2013-02-18 14:31:00,56.7,49.0,29.86,ESE,117,2.0,5.0,74,0.00,,,0.01,weatherlink.com 1.10,2013-02-18 20:31:00,
2013-02-18 14:46:00,55.7,50.0,29.86,SW,215,1.0,7.0,80,0.01,,,0.02,weatherlink.com 1.10,2013-02-18 20:46:00,
2013-02-18 15:16:00,55.0,49.0,29.84,South,179,1.0,5.0,79,0.01,,,0.02,weatherlink.com 1.10,2013-02-18 21:16:00,
2013-02-18 15:31:00,55.4,49.0,29.84,East,101,0.0,3.0,78,0.01,,,0.02,weatherlink.com 1.10,2013-02-18 21:31:00,
2013-02-18 15:46:00,55.7,50.0,29.86,South,188,1.0,3.0,80,0.01,,,0.03,weatherlink.com 1.10,2013-02-18 21:46:00,
2013-02-18 16:01:00,54.8,50.0,29.84,SSE,155,3.0,4.0,83,0.03,,,0.05,weatherlink.com 1.10,2013-02-18 22:01:00,
2013-02-18 16:16:00,54.3,50.0,29.83,South,184,2.0,3.0,85,0.03,,,0.05,weatherlink.com 1.10,2013-02-18 22:16:00,
2013-02-18 16:31:00,54.3,50.0,29.82,SSE,163,2.0,2.0,84,0.03,,,0.05,weatherlink.com 1.10,2013-02-18 22:31:00,
2013-02-18 16:46:00,54.3,50.0,29.80,South,174,1.0,3.0,84,0.02,,,0.05,weatherlink.com 1.10,2013-02-18 22:46:00,
2013-02-18 17:01:00,54.4,49.0,29.78,SSE,151,4.0,4.0,83,0.00,,,0.05,weatherlink.com 1.10,2013-02-18 23:01:00,
2013-02-18 17:16:00,54.3,49.0,29.77,SSE,157,1.0,4.0,83,0.00,,,0.05,weatherlink.com 1.10,2013-02-18 23:16:00,
2013-02-18 17:31:00,54.4,50.0,29.80,SW,215,2.0,4.0,84,0.01,,,0.06,weatherlink.com 1.10,2013-02-18 23:31:00,
2013-02-18 17:46:00,53.4,50.0,29.79,SE,137,0.0,3.0,89,0.06,,,0.11,weatherlink.com 1.10,2013-02-18 23:46:00,
2013-02-18 18:01:00,53.0,51.0,29.79,ESE,106,1.0,3.0,91,0.15,,,0.20,weatherlink.com 1.10,2013-02-19 00:01:00,
2013-02-18 18:16:00,52.6,50.0,29.78,SE,136,0.0,1.0,92,0.17,,,0.22,weatherlink.com 1.10,2013-02-19 00:16:00,
2013-02-18 18:31:00,52.5,51.0,29.80,ESE,118,0.0,1.0,93,0.18,,,0.24,weatherlink.com 1.10,2013-02-19 00:31:00,
2013-02-18 18:46:00,52.7,51.0,29.82,South,190,0.0,1.0,94,0.21,,,0.32,weatherlink.com 1.10,2013-02-19 00:46:00,
2013-02-18 19:01:00,52.7,51.0,29.84,West,276,2.0,3.0,94,0.24,,,0.44,weatherlink.com 1.10,2013-02-19 01:01:00,
2013-02-18 19:16:00,52.7,51.0,29.83,ESE,108,1.0,1.0,94,0.35,,,0.57,weatherlink.com 1.10,2013-02-19 01:16:00,
2013-02-18 19:31:00,52.4,51.0,29.78,East,86,1.0,1.0,94,0.39,,,0.63,weatherlink.com 1.10,2013-02-19 01:31:00,
2013-02-18 19:46:00,52.5,51.0,29.79,SSE,165,1.0,2.0,95,0.30,,,0.63,weatherlink.com 1.10,2013-02-19 01:46:00,
2013-02-18 20:01:00,53.3,52.0,29.79,North,8,4.0,5.0,94,0.21,,,0.66,weatherlink.com 1.10,2013-02-19 02:01:00,
2013-02-18 20:16:00,51.7,49.0,29.88,SW,226,5.0,18.0,90,0.27,,,0.84,weatherlink.com 1.10,2013-02-19 02:16:00,
2013-02-18 20:31:00,50.9,49.0,29.88,SW,229,3.0,13.0,93,0.30,,,0.93,weatherlink.com 1.10,2013-02-19 02:31:00,
2013-02-18 20:46:00,51.0,49.0,29.86,SSE,166,3.0,5.0,94,0.37,,,1.00,weatherlink.com 1.10,2013-02-19 02:46:00,
2013-02-18 21:01:00,51.0,49.0,29.85,SSE,166,1.0,3.0,94,0.39,,,1.05,weatherlink.com 1.10,2013-02-19 03:01:00,
2013-02-18 21:31:00,51.2,50.0,29.85,SSW,201,0.0,3.0,95,0.14,,,1.08,weatherlink.com 1.10,2013-02-19 03:31:00,
2013-02-18 21:46:00,51.4,50.0,29.85,South,181,0.0,1.0,95,0.07,,,1.08,weatherlink.com 1.10,2013-02-19 03:46:00,
2013-02-18 22:01:00,51.8,51.0,29.87,SSE,156,1.0,6.0,95,0.03,,,1.08,weatherlink.com 1.10,2013-02-19 04:01:00,
2013-02-18 22:16:00,52.3,51.0,29.88,SW,228,1.0,2.0,95,0.00,,,1.08,weatherlink.com 1.10,2013-02-19 04:16:00,
2013-02-18 22:31:00,52.6,51.0,29.89,WNW,282,3.0,4.0,94,0.00,,,1.08,weatherlink.com 1.10,2013-02-19 04:31:00,
2013-02-18 22:46:00,53.1,51.0,29.90,WSW,249,4.0,7.0,93,0.01,,,1.09,weatherlink.com 1.10,2013-02-19 04:46:00,
2013-02-18 23:01:00,52.3,47.0,29.92,West,263,5.0,19.0,83,0.01,,,1.09,weatherlink.com 1.10,2013-02-19 05:01:00,
2013-02-18 23:16:00,49.8,44.0,29.94,SSW,193,5.0,14.0,80,0.01,,,1.09,weatherlink.com 1.10,2013-02-19 05:16:00,
2013-02-18 23:31:00,48.7,43.0,29.95,SSW,210,1.0,17.0,81,0.01,,,1.09,weatherlink.com 1.10,2013-02-19 05:31:00,
2013-02-18 23:46:00,47.6,42.0,29.96,NNE,23,5.0,11.0,82,0.00,,,1.09,weatherlink.com 1.10,2013-02-19 05:46:00,